TimeEDT,TemperatureF,Dew PointF,Humidity,Sea Level PressureIn,VisibilityMPH,Wind Direction,Wind SpeedMPH,Gust SpeedMPH,PrecipitationIn,Events,Conditions,WindDirDegrees,DateUTC
12:54 AM,50.0,37.9,63,29.83,10.0,East,5.8,-,N/A,,Overcast,80,2012-04-06 04:54:00
1:54 AM,48.9,39.0,69,29.84,10.0,ENE,6.9,-,N/A,,Overcast,60,2012-04-06 05:54:00
2:54 AM,48.9,39.9,71,29.84,10.0,North,4.6,-,0.00,Rain,Light Rain,10,2012-04-06 06:54:00
3:54 AM,46.0,42.1,86,29.84,9.0,NNE,8.1,-,0.02,Rain,Light Rain,20,2012-04-06 07:54:00
4:54 AM,46.0,42.1,86,29.84,10.0,NE,8.1,-,0.04,Rain,Light Rain,40,2012-04-06 08:54:00
5:54 AM,46.0,42.1,86,29.86,10.0,NE,8.1,-,0.01,,Overcast,40,2012-04-06 09:54:00
6:54 AM,46.0,41.0,83,29.88,10.0,NNE,4.6,-,0.00,,Overcast,30,2012-04-06 10:54:00
7:54 AM,46.0,39.9,79,29.91,10.0,NNE,5.8,-,0.00,Rain,Light Rain,20,2012-04-06 11:54:00
8:54 AM,48.0,39.0,71,29.94,10.0,NNE,10.4,-,0.00,,Overcast,30,2012-04-06 12:54:00
9:54 AM,51.1,39.0,63,29.94,10.0,NE,11.5,-,N/A,,Scattered Clouds,50,2012-04-06 13:54:00
10:54 AM,54.0,37.9,55,29.96,10.0,NE,15.0,21.9,N/A,,Partly Cloudy,50,2012-04-06 14:54:00
11:54 AM,55.9,36.0,47,29.97,10.0,NE,11.5,20.7,N/A,,Partly Cloudy,40,2012-04-06 15:54:00
12:54 PM,57.9,32.0,37,29.97,10.0,NNE,12.7,20.7,N/A,,Partly Cloudy,30,2012-04-06 16:54:00
1:54 PM,60.1,32.0,35,29.97,10.0,NNE,11.5,19.6,N/A,,Partly Cloudy,30,2012-04-06 17:54:00
2:54 PM,61.0,30.9,32,29.96,10.0,North,10.4,23.0,N/A,,Partly Cloudy,10,2012-04-06 18:54:00
3:54 PM,62.1,33.1,34,29.95,10.0,North,9.2,23.0,N/A,,Partly Cloudy,10,2012-04-06 19:54:00
4:54 PM,64.0,33.1,31,29.95,10.0,North,10.4,-,N/A,,Partly Cloudy,10,2012-04-06 20:54:00
5:54 PM,63.0,27.0,26,29.96,10.0,NNE,8.1,-,N/A,,Partly Cloudy,30,2012-04-06 21:54:00
6:54 PM,60.1,28.9,31,29.97,10.0,ENE,8.1,-,N/A,,Clear,70,2012-04-06 22:54:00
7:54 PM,57.0,28.9,34,29.99,10.0,Calm,Calm,-,N/A,,Clear,0,2012-04-06 23:54:00
8:54 PM,54.0,30.0,40,30.01,10.0,East,3.5,-,N/A,,Clear,90,2012-04-07 00:54:00
9:54 PM,53.1,33.1,47,30.05,10.0,Calm,Calm,-,N/A,,Clear,0,2012-04-07 01:54:00
10:54 PM,51.1,32.0,48,30.07,10.0,Calm,Calm,-,N/A,,Clear,0,2012-04-07 02:54:00
11:54 PM,46.9,36.0,66,30.09,10.0,Calm,Calm,-,N/A,,Clear,0,2012-04-07 03:54:00